Regional Weather Roundup
Issued by NWS

Home | Current Version | Previous Version | Text Only | Print | Product List | Glossary Off
Versions: 1 2 3 4 5 6 7 8 9 10 11 12 13 14 15 16 17 18 19 20 21 22 23 24 25 26 27 28 29 30 31 32 33 34 35 36 37 38 39 40 41 42 43 44 45 46 47 48 49 50

000
ASUS43 KIND 232009
RWRIN

WEATHER ROUNDUP FOR INDIANA
NATIONAL WEATHER SERVICE INDIANAPOLIS IN
400 PM EDT MON MAY 23 2016

NOTE: "FAIR" INDICATES FEW OR NO CLOUDS BELOW 12,000 FEET WITH NO
SIGNIFICANT WEATHER AND/OR OBSTRUCTIONS TO VISIBILITY.

* - STATION DOES NOT REPORT WEATHER SUCH AS PRECIPITATION OR FOG.

+ - STATION NOT QUALITY CONTROLLED BY THE NATIONAL WEATHER SERVICE.
    USE DATA WITH CAUTION...ESPECIALLY DEWPOINT AND RELATIVE
    HUMIDITY OBSERVATIONS.

INZ001>003-010>013-019-020-232100-
NORTHWEST INDIANA

CITY           SKY/WX    TMP DP  RH WIND       PRES   REMARKS
GARY /AIRPORT/ MOSUNNY   82  46  28 SE7       29.98F
KNOX *+        SUNNY     79  19  11 SE7       29.99F
LA PORTE +     SUNNY     81  33  17 S6        30.00F
MICHIGAN CITY+ SUNNY     79  41  25 SE5       29.99F
MONTICELLO +   SUNNY     79  24  13 S6        29.99F
RENSSELAER +   SUNNY     81  28  15 SE10G16   29.99F
VALPARAISO     SUNNY     80  38  22 SE10G17   29.99F

$$

LMZ046-743>745-232100-
SOUTHERN LAKE MICHIGAN

STATION/POSITION TIME  TEMP    WIND        PRES    WAVE
                       AIR SEA DIR/SP/G            HT
                 (UTC) (F)     (DEG/KT/KT) (MB)    (FT)
BURNS HARBOR     1930   67     360/  6/ 16 1015.6F
MICHIGAN CITY    1900   70      20/  8/ 10   N/A
5NW MICH CITY    2000   63 60   10/  8/  8   N/A     0

$$

INZ004-005-014>016-021>024-232100-
NORTH CENTRAL INDIANA

CITY           SKY/WX    TMP DP  RH WIND       PRES   REMARKS
ELKHART        SUNNY     77  43  29 E3        30.01F
GOSHEN         SUNNY     77  29  17 E5        30.01F
LOGANSPORT +   SUNNY     77  34  20 E6        30.01S
PERU/GRISSOM   SUNNY     77  34  21 VRB6      30.00F
ROCHESTER +    SUNNY     79  34  19 E6        30.01F
SOUTH BEND     SUNNY     77  35  21 S8        30.00F
WARSAW +       SUNNY     75  36  23 SE6       30.01F

$$

INZ006>009-017-018-025>027-232100-
NORTHEAST INDIANA

CITY           SKY/WX    TMP DP  RH WIND       PRES   REMARKS
ANGOLA *+      SUNNY     75  36  23 CALM      30.03F
AUBURN +       SUNNY     75  28  17 CALM      30.04F
FORT WAYNE     SUNNY     77  30  17 SE3       30.03F
HUNTINGTON +   SUNNY    N/A N/A N/A NE5       30.01F

$$

INZ028-029-035-036-043>045-051>053-232100-
WEST CENTRAL INDIANA

CITY           SKY/WX    TMP DP  RH WIND       PRES   REMARKS
CRAWFORDSVL +  SUNNY     76  44  31 SE10      30.00F
GREENCASTLE +  SUNNY     77  50  38 E7        30.01S
LAFAYETTE      SUNNY     78  37  22 CALM      29.98F
TERRE HAUTE    SUNNY     79  43  27 VRB7      30.00S

$$

INZ030>032-037>040-046>048-054>057-064-065-232100-
CENTRAL INDIANA

CITY           SKY/WX    TMP DP  RH WIND       PRES   REMARKS
ANDERSON       SUNNY     75  32  20 CALM      30.03
CP ATTERBURY + SUNNY     77  39  25 E6        30.01F
COLUMBUS       SUNNY     75  39  27 E7        30.01F
FRANKFORT +      N/A    N/A N/A N/A SE6       30.03R
GREENWOOD *+   SUNNY     75  37  25 E7        30.01F
INDIANAPOLIS   SUNNY     77  42  28 E7        29.99F
-EAGLE CREEK   SUNNY     77  37  23 E6        30.00F
KOKOMO *+      SUNNY     77  39  25 E7        30.00F
MARION +       SUNNY     75  33  21 CALM      30.02F
SHELBYVILLE    SUNNY     78  31  17 CALM      30.00F
ZIONSVILLE +   SUNNY     75  37  24 E6        30.02F

$$

INZ033-034-041-042-049-050-058-059-232100-
EAST CENTRAL INDIANA

CITY           SKY/WX    TMP DP  RH WIND       PRES   REMARKS
MUNCIE         SUNNY     77  31  18 SE7       30.01F

$$

INZ060-061-067>069-081>083-085>088-232100-
SOUTHWEST INDIANA

CITY           SKY/WX    TMP DP  RH WIND       PRES   REMARKS
EVANSVILLE       N/A    N/A N/A N/A MISG      30.00F
HUNTINGBURG *+ SUNNY     81  45  28 SE3       30.00S
WASHINGTON +   SUNNY     79  48  32 S6        30.00R

$$

INZ062-063-066-070>080-084-089>092-232100-
SOUTH CENTRAL AND SOUTHEAST INDIANA

CITY           SKY/WX    TMP DP  RH WIND       PRES   REMARKS
BLOOMINGTON    SUNNY     78  40  25 VRB6      30.01S
MADISON *+     SUNNY     77  37  24 SE9       30.03F
NORTH VERNON + SUNNY     77  48  36 CALM      30.01F
SEYMOUR +      SUNNY     79  45  29 NE9       30.00F

$$




USA.gov is the U.S. government's official web portal to all federal, state and local government web resources and services.